• In Deutschland
  • Länderverzeichnis
  • Für 7 Tage
  • Wassertemperatur
  • Satellitenkarten
  • Wetterkarte
  • Widgets
  • user-avatar
    Anmelden

    Stündliche Wetter Lugi

    Heute, 24 April, Dienstag

    Zeit Temperatur Niederschläge Wind Luftdruck Luftfeuchtigkeit
    00:00 +3°C° 0 mm 1 m/S 738 mmHg 60%
    01:00 +3°C° 0 mm 1 m/S 738 mmHg 61%
    02:00 +2°C° 0 mm 2 m/S 738 mmHg 63%
    03:00 +1°C° 0 mm 2 m/S 738 mmHg 64%
    04:00 +1°C° 0 mm 2 m/S 738 mmHg 65%
    05:00 +1°C° 0 mm 2 m/S 738 mmHg 66%
    06:00 +3°C° 0 mm 2 m/S 738 mmHg 61%
    07:00 +5°C° 0 mm 2 m/S 738 mmHg 57%
    08:00 +7°C° 0 mm 3 m/S 738 mmHg 52%
    09:00 +8°C° 0 mm 3 m/S 737 mmHg 52%
    10:00 +9°C° 0 mm 3 m/S 737 mmHg 52%
    11:00 +10°C° 0 mm 3 m/S 737 mmHg 52%
    12:00 +10°C° 0 mm 4 m/S 737 mmHg 53%
    13:00 +10°C° 0 mm 4 m/S 736 mmHg 54%
    14:00 +11°C° 0 mm 4 m/S 736 mmHg 55%
    15:00 +10°C° 0 mm 4 m/S 736 mmHg 59%
    16:00 +10°C° 0 mm 3 m/S 735 mmHg 63%
    17:00 +9°C° 0 mm 3 m/S 735 mmHg 67%
    18:00 +9°C° 0 mm 3 m/S 735 mmHg 71%
    19:00 +8°C° 0 mm 3 m/S 735 mmHg 75%
    20:00 +8°C° 0 mm 2 m/S 734 mmHg 78%
    21:00 +7°C° 0 mm 2 m/S 734 mmHg 82%
    22:00 +7°C° 0 mm 2 m/S 734 mmHg 85%
    23:00 +7°C° 0 mm 2 m/S 734 mmHg 89%

    Morgen, 25 April, Mittwoch

    Zeit Temperatur Niederschläge Wind Luftdruck Luftfeuchtigkeit
    00:00 +6°C° 0 mm 2 m/S 734 mmHg 91%
    01:00 +6°C° 0 mm 2 m/S 733 mmHg 92%
    02:00 +6°C° 0 mm 2 m/S 733 mmHg 94%
    03:00 +6°C° 0 mm 2 m/S 733 mmHg 94%
    04:00 +5°C° 0 mm 2 m/S 733 mmHg 94%
    05:00 +4°C° 0 mm 3 m/S 733 mmHg 94%
    06:00 +5°C° 0 mm 3 m/S 733 mmHg 86%
    07:00 +8°C° 0 mm 3 m/S 733 mmHg 78%
    08:00 +10°C° 0 mm 3 m/S 733 mmHg 69%
    09:00 +11°C° 0 mm 4 m/S 733 mmHg 68%
    10:00 +12°C° 0 mm 5 m/S 733 mmHg 66%
    11:00 +13°C° 0 mm 5 m/S 733 mmHg 64%
    12:00 +13°C° 0,4 mm 6 m/S 733 mmHg 64%
    13:00 +13°C° 0,4 mm 6 m/S 733 mmHg 64%
    14:00 +14°C° 0,4 mm 6 m/S 732 mmHg 64%
    15:00 +13°C° 0,3 mm 6 m/S 732 mmHg 66%
    16:00 +12°C° 0,3 mm 5 m/S 732 mmHg 67%
    17:00 +12°C° 0,3 mm 4 m/S 732 mmHg 68%
    18:00 +11°C° 0 mm 4 m/S 732 mmHg 71%
    19:00 +10°C° 0 mm 3 m/S 733 mmHg 74%
    20:00 +9°C° 0 mm 3 m/S 733 mmHg 76%
    21:00 +8°C° 0 mm 3 m/S 733 mmHg 80%
    22:00 +8°C° 0 mm 3 m/S 733 mmHg 84%
    23:00 +7°C° 0 mm 2 m/S 733 mmHg 87%

    übermorgen, 26 April, Donnerstag

    Zeit Temperatur Niederschläge Wind Luftdruck Luftfeuchtigkeit
    00:00 +7°C° 0 mm 2 m/S 733 mmHg 89%
    01:00 +6°C° 0 mm 2 m/S 732 mmHg 92%
    02:00 +6°C° 0 mm 2 m/S 732 mmHg 94%
    03:00 +6°C° 0,4 mm 2 m/S 732 mmHg 95%
    04:00 +6°C° 0,4 mm 2 m/S 731 mmHg 96%
    05:00 +8°C° 0,4 mm 1 m/S 731 mmHg 97%
    06:00 +7°C° 0,8 mm 2 m/S 731 mmHg 95%
    07:00 +8°C° 0,8 mm 2 m/S 731 mmHg 93%
    08:00 +9°C° 0,8 mm 2 m/S 731 mmHg 91%
    09:00 +10°C° 0,5 mm 3 m/S 731 mmHg 89%
    10:00 +10°C° 0,5 mm 3 m/S 731 mmHg 86%
    11:00 +11°C° 0,5 mm 4 m/S 732 mmHg 83%
    12:00 +12°C° 0,1 mm 5 m/S 732 mmHg 75%
    13:00 +14°C° 0,1 mm 5 m/S 732 mmHg 66%
    14:00 +15°C° 0,1 mm 6 m/S 732 mmHg 57%
    15:00 +14°C° 0 mm 5 m/S 733 mmHg 56%
    16:00 +14°C° 0 mm 4 m/S 733 mmHg 56%
    17:00 +14°C° 0 mm 4 m/S 733 mmHg 56%
    18:00 +12°C° 0 mm 3 m/S 733 mmHg 62%
    19:00 +12°C° 0 mm 2 m/S 734 mmHg 68%
    20:00 +9°C° 0 mm 2 m/S 734 mmHg 74%
    21:00 +8°C° 0 mm 2 m/S 735 mmHg 77%
    22:00 +8°C° 0 mm 2 m/S 735 mmHg 80%
    23:00 +7°C° 0 mm 2 m/S 735 mmHg 83%

    27 April, Freitag

    Zeit Temperatur Niederschläge Wind Luftdruck Luftfeuchtigkeit
    00:00 +8°C° 0 mm 2 m/S 735 mmHg 83%
    01:00 +8°C° 0 mm 2 m/S 735 mmHg 83%
    02:00 +8°C° 0 mm 2 m/S 735 mmHg 84%
    03:00 +8°C° 0 mm 2 m/S 735 mmHg 85%
    04:00 +8°C° 0 mm 2 m/S 735 mmHg 86%
    05:00 +8°C° 0 mm 2 m/S 735 mmHg 87%
    06:00 +9°C° 0 mm 3 m/S 735 mmHg 83%
    07:00 +9°C° 0 mm 3 m/S 736 mmHg 79%
    08:00 +10°C° 0 mm 3 m/S 736 mmHg 75%
    09:00 +11°C° 0,2 mm 4 m/S 736 mmHg 70%
    10:00 +12°C° 0,2 mm 4 m/S 736 mmHg 65%
    11:00 +13°C° 0,2 mm 4 m/S 736 mmHg 60%
    12:00 +13°C° 0,5 mm 4 m/S 736 mmHg 59%
    13:00 +13°C° 0,5 mm 5 m/S 736 mmHg 58%
    14:00 +13°C° 0,5 mm 5 m/S 736 mmHg 57%
    15:00 +13°C° 0,2 mm 5 m/S 737 mmHg 58%
    16:00 +13°C° 0,2 mm 5 m/S 737 mmHg 58%
    17:00 +12°C° 0,2 mm 5 m/S 737 mmHg 59%
    18:00 +11°C° 0 mm 4 m/S 738 mmHg 64%
    19:00 +8°C° 0 mm 4 m/S 739 mmHg 70%
    20:00 +8°C° 0 mm 3 m/S 740 mmHg 76%
    21:00 +7°C° 0 mm 3 m/S 740 mmHg 78%
    22:00 +7°C° 0 mm 3 m/S 740 mmHg 80%
    23:00 +5°C° 0 mm 3 m/S 741 mmHg 82%

    28 April, Samstag

    Zeit Temperatur Niederschläge Wind Luftdruck Luftfeuchtigkeit
    00:00 +4°C° 0 mm 3 m/S 741 mmHg 85%
    01:00 +5°C° 0 mm 2 m/S 742 mmHg 88%
    02:00 +4°C° 0 mm 2 m/S 742 mmHg 90%
    03:00 +4°C° 0 mm 2 m/S 742 mmHg 90%
    04:00 +4°C° 0 mm 2 m/S 743 mmHg 90%
    05:00 +4°C° 0 mm 2 m/S 743 mmHg 90%
    06:00 +6°C° 0 mm 2 m/S 743 mmHg 82%
    07:00 +8°C° 0 mm 2 m/S 744 mmHg 73%
    08:00 +9°C° 0 mm 2 m/S 744 mmHg 65%
    09:00 +12°C° 0 mm 2 m/S 744 mmHg 59%
    10:00 +12°C° 0 mm 3 m/S 744 mmHg 54%
    11:00 +13°C° 0 mm 3 m/S 744 mmHg 48%
    12:00 +14°C° 0 mm 3 m/S 744 mmHg 46%
    13:00 +14°C° 0 mm 3 m/S 744 mmHg 44%
    14:00 +16°C° 0 mm 3 m/S 744 mmHg 42%
    15:00 +15°C° 0 mm 2 m/S 743 mmHg 44%
    16:00 +15°C° 0 mm 2 m/S 743 mmHg 46%
    17:00 +15°C° 0 mm 2 m/S 743 mmHg 48%
    18:00 +14°C° 0 mm 2 m/S 743 mmHg 54%
    19:00 +12°C° 0 mm 2 m/S 743 mmHg 60%
    20:00 +9°C° 0 mm 2 m/S 742 mmHg 66%
    21:00 +9°C° 0 mm 2 m/S 742 mmHg 67%
    22:00 +9°C° 0 mm 3 m/S 742 mmHg 68%
    23:00 +9°C° 0 mm 3 m/S 742 mmHg 69%

    29 April, Sonntag

    Zeit Temperatur Niederschläge Wind Luftdruck Luftfeuchtigkeit
    00:00 +9°C° 0 mm 3 m/S 742 mmHg 70%
    01:00 +9°C° 0 mm 3 m/S 741 mmHg 71%
    02:00 +9°C° 0 mm 3 m/S 741 mmHg 71%
    03:00 +9°C° 0,7 mm 3 m/S 741 mmHg 75%
    04:00 +9°C° 0,7 mm 3 m/S 741 mmHg 79%
    05:00 +9°C° 0,7 mm 3 m/S 741 mmHg 83%
    06:00 +9°C° 0,8 mm 3 m/S 741 mmHg 86%
    07:00 +9°C° 0,8 mm 3 m/S 740 mmHg 88%
    08:00 +9°C° 0,8 mm 3 m/S 740 mmHg 91%
    09:00 +10°C° 0,2 mm 2 m/S 740 mmHg 90%
    10:00 +10°C° 0,2 mm 2 m/S 740 mmHg 90%
    11:00 +12°C° 0,2 mm 1 m/S 740 mmHg 89%
    12:00 +13°C° 0 mm 1 m/S 740 mmHg 85%
    13:00 +13°C° 0 mm 1 m/S 740 mmHg 82%
    14:00 +14°C° 0 mm 1 m/S 740 mmHg 79%
    15:00 +14°C° 0 mm 1 m/S 740 mmHg 78%
    16:00 +14°C° 0 mm 1 m/S 740 mmHg 76%
    17:00 +15°C° 0 mm 1 m/S 740 mmHg 75%
    18:00 +13°C° 0 mm 1 m/S 741 mmHg 79%
    19:00 +12°C° 0 mm 1 m/S 741 mmHg 84%
    20:00 +10°C° 0 mm 1 m/S 741 mmHg 88%
    21:00 +10°C° 0 mm 1 m/S 741 mmHg 89%
    22:00 +9°C° 0 mm 1 m/S 741 mmHg 89%
    23:00 +8°C° 0 mm 1 m/S 742 mmHg 90%
    Mehr zeigen